Airfield :







YOU CAN JOIN US ON...

 
LOGIN :

Register | Disclaimer

   EN    FR    IT 

 









Legend :    VFR   Marginal VFR   IFR   Intensive IFR   Very Intensive IFR
Visi :
Ceiling :
>= 8 km
>= 3000ft
5 to 8 km
1000 to 3000 ft
1500m to 5 km
500 to 1000 ft
800 to 1500m
200 to 500 ft
< 800m
< 200 ft
Symbols :   Thunderstorms  Fog  Heavy snow  Heavy precipitations  Wind > 20 kt







- Airport Elevation : 76 ft
- IATA code : EGS


BIEG - Egilsstaðir

CURRENT METAR :
  • 181500Z 01016KT 9999 SCT012 OVC017 08/05 Q1003 RMK WIND GAGNHEIDI 02035KT

EXPIRED METARs :
  • 181400Z 01015KT 9999 RA BKN008 OVC012 08/06 Q1003 RMK WIND GAGNHEIDI 03028KT
  • 181300Z 01020G30KT 9999 DZ SCT010 BKN021 OVC042 08/06 Q1002 RMK WIND GAGNHEIDI 02029KT

TAF TAF BIEG
Valid from the 18 at 15:00 until the 19 at 15:00 UTC


181323Z 1815/1915 01018G28KT 9999 -RA SCT010 BKN020 OVC035 TX08/1815Z TN04/1906Z
BECMG 1819/1821 35013KT
No reported NOTAMs for that airfield.



MET'MAP, your aeronautical weather chart ! - Copyright ORBIFLY December 2007 - Disclaimer

ORBIFLY MET'MAP TEAM :

Programming & Development : Alexandra Zaïnal
Concept & Development : Baudouin d'Aumeries
Co-Development & Prog : Marc-Olivier Méhu
Technical & hardware support : Manuel Goepfert

Contact : metmap@orbifly.com




SOURCES & CREDITS :

   NOAA